Hatteras, NC

9:58 AM EDT on March 27, 2017 (GMT -0400)
Mitchell

Weather History for KHSE - October, 2013

Change the Weather History Date:

Thursday, October 3, 2013

  Actual Average Record
Temperature  
Mean Temperature 75 °F 70 °F  
Max Temperature 82 °F 76 °F 87 °F (1986)
Min Temperature 68 °F 64 °F 44 °F (1984)
Degree Days  
Heating Degree Days 0 1  
Month to date heating degree days 0 3  
Since 1 July heating degree days 4 6  
Cooling Degree Days 10 5  
Month to date cooling degree days 21 17  
Year to date cooling degree days 1857 1609  
Growing Degree Days 25 (Base 50)    
Moisture  
Dew Point 67 °F    
Average Humidity 72    
Maximum Humidity 97    
Minimum Humidity 47    
Precipitation  
Precipitation 0.00 in 0.19 in 1.51 in (1988)
Month to date precipitation 0.00 0.57  
Year to date precipitation 36.03 44.01  
Snow  
Snow 0.00 in - - ()
Month to date snowfall 0.0  
Since 1 July snowfall 0.0  
Snow Depth 0.00 in    
Sea Level Pressure  
Sea Level Pressure 30.13 in    
Wind  
Wind Speed 5 mph (WSW)    
Max Wind Speed 8 mph    
Max Gust Speed 10 mph    
Visibility 10 miles    
Events      
T = Trace of Precipitation, MM = Missing Value Source: NWS Daily Summary

Daily Weather History Graph

Daily Weather History Graph

Search for Another Location

Airport or City:

Trip Planner

Search our weather history database for the weather conditions in past years. The results will help you decide how hot, cold, wet, or windy it might be!

Date:

Astronomy

Oct. 03, 2013 Rise Set
Actual Time 6:59 AM EDT 6:43 PM EDT
Civil Twilight 6:33 AM EDT 7:08 PM EDT
Nautical Twilight 6:04 AM EDT 7:37 PM EDT
Astronomical Twilight 5:34 AM EDT 8:07 PM EDT
Moon 5:32 AM EDT (10/3) 5:49 PM EDT (10/3)
Length of Visible Light 12h 34m
Length of Day
11h 44m
Waning Crescent, 2% of the Moon is Illuminated
Oct 3
Waning Crescent
Oct 4
New
Oct 11
First Quarter
Oct 18
Full
Oct 26
Last Quarter

Hourly Weather History & Observations

Time (EDT) Temp. Heat Index Dew Point Humidity Pressure Visibility Wind Dir Wind Speed Gust Speed Precip Events Conditions
12:51 AM 71.1 °F - 68.0 °F 90% 30.12 in 10.0 mi WSW 4.6 mph - N/A   Clear
1:51 AM 70.0 °F - 68.0 °F 93% 30.12 in 10.0 mi West 3.5 mph - N/A   Clear
2:51 AM 70.0 °F - 66.9 °F 90% 30.11 in 9.0 mi West 4.6 mph - N/A   Clear
3:51 AM 70.0 °F - 66.9 °F 90% 30.11 in 10.0 mi West 3.5 mph - N/A   Clear
4:51 AM 70.0 °F - 68.0 °F 93% 30.11 in 10.0 mi West 4.6 mph - N/A   Clear
5:51 AM 70.0 °F - 68.0 °F 93% 30.12 in 9.0 mi WNW 3.5 mph - N/A   Clear
6:51 AM 68.0 °F - 66.9 °F 96% 30.13 in 8.0 mi NW 3.5 mph - N/A   Clear
7:51 AM 71.1 °F - 68.0 °F 90% 30.13 in 9.0 mi Calm Calm - N/A   Clear
8:51 AM 73.9 °F - 66.9 °F 79% 30.14 in 10.0 mi Variable 3.5 mph - N/A   Clear
9:51 AM 75.9 °F - 66.0 °F 71% 30.15 in 10.0 mi NW 5.8 mph - N/A   Clear
10:51 AM 75.9 °F - 64.9 °F 69% 30.16 in 10.0 mi Variable 4.6 mph - N/A   Clear
11:51 AM 77.0 °F - 64.0 °F 64% 30.15 in 10.0 mi West 4.6 mph - N/A   Clear
12:51 PM 78.1 °F - 66.0 °F 66% 30.14 in 10.0 mi SSW 8.1 mph - N/A   Clear
1:51 PM 80.1 °F 80.7 °F 59.0 °F 48% 30.12 in 10.0 mi WNW 6.9 mph - N/A   Clear
2:51 PM 82.0 °F 82.7 °F 61.0 °F 49% 30.12 in 10.0 mi West 5.8 mph - N/A   Clear
3:51 PM 78.1 °F - 66.0 °F 66% 30.12 in 10.0 mi SW 5.8 mph - N/A   Clear
4:51 PM 79.0 °F - 66.0 °F 64% 30.11 in 10.0 mi SSW 3.5 mph - N/A   Mostly Cloudy
5:51 PM 75.9 °F - 68.0 °F 76% 30.11 in 10.0 mi SW 4.6 mph - N/A   Clear
6:51 PM 73.9 °F - 69.1 °F 85% 30.12 in 10.0 mi SSW 4.6 mph - N/A   Clear
7:51 PM 73.9 °F - 69.1 °F 85% 30.12 in 10.0 mi SSW 5.8 mph - N/A   Clear
8:51 PM 73.0 °F - 69.1 °F 87% 30.13 in 10.0 mi SW 5.8 mph - N/A   Clear
9:51 PM 73.0 °F - 69.1 °F 87% 30.14 in 10.0 mi SW 4.6 mph - N/A   Clear
10:51 PM 72.0 °F - 69.1 °F 91% 30.14 in 10.0 mi SW 4.6 mph - N/A   Clear
11:51 PM 72.0 °F - 69.1 °F 91% 30.14 in 10.0 mi WSW 3.5 mph - N/A   Clear